Alexandria, Egypt

8:07 PM EET on April 23, 2017 (GMT +0200)
Alexandria International

Weather History for HEAX - July, 2014

Change the Weather History Date:

Sunday, July 27, 2014

  Actual Average Record
Temperature  
Mean Temperature 80 °F -  
Max Temperature 87 °F 85 °F 91 °F (2002)
Min Temperature 72 °F 74 °F 69 °F (2004)
Cooling Degree Days 14    
Growing Degree Days 30 (Base 50)    
Moisture  
Dew Point 71 °F    
Average Humidity 70    
Maximum Humidity 88    
Minimum Humidity 52    
Precipitation  
Precipitation 0.00 in 0.00 in - ()
Sea Level Pressure  
Sea Level Pressure 29.89 in    
Wind  
Wind Speed 6 mph ()    
Max Wind Speed 15 mph    
Max Gust Speed -    
Visibility 6.1 miles    
Events      
Averages and records for this station are not official NWS values.
T = Trace of Precipitation, MM = Missing Value Source: Averaged Metar Reports

Daily Weather History Graph

Daily Weather History Graph

Search for Another Location

Airport or City:

Trip Planner

Search our weather history database for the weather conditions in past years. The results will help you decide how hot, cold, wet, or windy it might be!

Date:

Astronomy

Jul. 27, 2014 Rise Set
Actual Time 5:13 AM EET 6:59 PM EET
Civil Twilight 4:47 AM EET 7:26 PM EET
Nautical Twilight 4:14 AM EET 7:58 PM EET
Astronomical Twilight 3:40 AM EET 8:31 PM EET
Moon 5:36 AM EET (7/27) 7:05 PM EET (7/27)
Length of Visible Light 14h 39m
Length of Day
13h 45m
New Moon, 0% of the Moon is Illuminated
Jul 27
New Moon
Aug 4
First Quarter
Aug 10
Full
Aug 17
Last Quarter
Aug 25
New

Hourly Weather History & Observations

Time (EET) Temp. Heat Index Dew Point Humidity Pressure Visibility Wind Dir Wind Speed Gust Speed Precip Events Conditions
12:00 AM 77.0 °F - 69.8 °F 78% 29.83 in - NNW 4.6 mph - N/A   Clear
1:00 AM 77.0 °F - 69.8 °F 78% 29.86 in - WNW 4.6 mph - N/A   Clear
2:00 AM 77 °F - 70 °F 72% 29.86 in 6 mi WNW 4.6 mph - -  
2:00 AM 77.0 °F - 69.8 °F 78% 29.86 in - WNW 4.6 mph - N/A   Clear
3:00 AM 77.0 °F - 71.6 °F 83% 29.83 in 6.2 mi West 3.5 mph - N/A   Partly Cloudy
4:00 AM 77.0 °F - 71.6 °F 83% 29.83 in 6.2 mi West 3.5 mph - N/A   Partly Cloudy
5:00 AM 76 °F - 71 °F 79% 29.85 in 6 mi West 3.5 mph - -   Scattered Clouds
5:00 AM 77.0 °F - 71.6 °F 83% 29.83 in 6.2 mi West 3.5 mph - N/A   Partly Cloudy
6:00 AM 73.4 °F - 69.8 °F 88% 29.86 in 6.2 mi South 2.3 mph - N/A   Partly Cloudy
7:00 AM 80.6 °F 84.6 °F 71.6 °F 74% 29.86 in 6.2 mi West 4.6 mph - N/A   Partly Cloudy
8:00 AM 82 °F - 71 °F 61% 29.90 in 6 mi WNW 3.5 mph - -   Partly Cloudy
8:00 AM 82.4 °F 87.2 °F 71.6 °F 70% 29.89 in 6.2 mi WNW 3.5 mph - N/A   Scattered Clouds
9:00 AM 84.2 °F 88.4 °F 69.8 °F 62% 29.89 in 6.2 mi West 4.6 mph - N/A   Scattered Clouds
10:00 AM 86.0 °F 90.4 °F 69.8 °F 58% 29.89 in 6.2 mi West 9.2 mph - N/A   Scattered Clouds
11:00 AM 85 °F - 70 °F 52% 29.92 in 6 mi WNW 9.2 mph - -   Partly Cloudy
11:00 AM 84.2 °F 88.4 °F 69.8 °F 62% 29.92 in 6.2 mi West 10.4 mph - N/A   Scattered Clouds
12:00 PM 86.0 °F 89.4 °F 68.0 °F 55% 29.92 in 6.2 mi NW 11.5 mph - N/A   Scattered Clouds
1:00 PM 86.0 °F 90.4 °F 69.8 °F 58% 29.92 in 6.2 mi WNW 11.5 mph - N/A   Scattered Clouds
2:00 PM 86 °F - 71 °F 53% 29.91 in 6 mi WNW 13.8 mph - -   Scattered Clouds
2:00 PM 86.0 °F 91.8 °F 71.6 °F 62% 29.89 in 6.2 mi WNW 13.8 mph - N/A   Partly Cloudy
3:00 PM 87.8 °F 93.8 °F 71.6 °F 58% 29.89 in 6.2 mi NNW 15.0 mph - N/A   Partly Cloudy
4:00 PM 86.0 °F 93.4 °F 73.4 °F 66% 29.89 in 6.2 mi NW 13.8 mph - N/A   Partly Cloudy
5:00 PM 84 °F - 72 °F 58% 29.90 in 6 mi NW 12.7 mph - -   Scattered Clouds
5:00 PM 84.2 °F 89.6 °F 71.6 °F 66% 29.89 in 6.2 mi NW 12.7 mph - N/A   Partly Cloudy
6:00 PM 82.4 °F 88.2 °F 73.4 °F 74% 29.89 in 6.2 mi NNW 11.5 mph - N/A   Partly Cloudy
7:00 PM 80.6 °F 85.4 °F 73.4 °F 79% 29.89 in 6.2 mi NW 9.2 mph - N/A   Partly Cloudy
8:00 PM 80 °F - 72 °F 70% 29.92 in 6 mi NNW 6.9 mph - -   Partly Cloudy
8:00 PM 80.6 °F 84.6 °F 71.6 °F 74% 29.92 in 6.2 mi NNW 6.9 mph - N/A   Scattered Clouds
9:00 PM 78.8 °F - 71.6 °F 78% 29.92 in 6.2 mi North 9.2 mph - N/A   Scattered Clouds
10:00 PM 78.8 °F - 71.6 °F 78% 29.92 in 6.2 mi North 6.9 mph - N/A   Scattered Clouds
11:00 PM 84 °F - 71 °F 58% 29.93 in 6 mi NNW 5.8 mph - -   Scattered Clouds
11:00 PM 78.8 °F - 71.6 °F 78% 29.92 in 6.2 mi NNW 5.8 mph - N/A   Partly Cloudy